| time (UTC) | temp F | wind direction | speed MPH | gust MPH | rain 1hr in | rain 24hr in | rain mn in | humidity % | barometer mb |
| 20260902200038 | 76 | 239 | 6.0 | 0.0 | 0.00 | 0.00 | 0.00 | 26 | 1007.4 |
| 20260902194526 | 76 | 232 | 7.0 | 0.0 | 0.00 | 0.00 | 0.00 | 24 | 1007.4 |
| 20260902193015 | 76 | 275 | 5.0 | 0.0 | 0.00 | 0.00 | 0.00 | 26 | 1007.3 |
| 20260902191602 | 75 | 238 | 6.0 | 0.0 | 0.00 | 0.00 | 0.00 | 26 | 1007.5 |
| 20260902190055 | 74 | 229 | 8.0 | 0.0 | 0.00 | 0.00 | 0.00 | 26 | 1007.6 |
| 20260902184537 | 74 | 251 | 9.0 | 0.0 | 0.00 | 0.00 | 0.00 | 25 | 1007.8 |
| 20260902183045 | 74 | 190 | 8.0 | 0.0 | 0.00 | 0.00 | 0.00 | 25 | 1008.0 |
| 20260902181516 | 74 | 211 | 7.0 | 0.0 | 0.00 | 0.00 | 0.00 | 24 | 1007.9 |
| 20260902180015 | 73 | 155 | 7.0 | 0.0 | 0.00 | 0.00 | 0.00 | 25 | 1008.0 |
| 20260902174556 | 73 | 263 | 7.0 | 0.0 | 0.00 | 0.00 | 0.00 | 24 | 1008.1 |
| 20260902173058 | 72 | 234 | 6.0 | 0.0 | 0.00 | 0.00 | 0.00 | 25 | 1008.2 |
| 20260902171537 | 72 | 292 | 4.0 | 0.0 | 0.00 | 0.00 | 0.00 | 25 | 1007.9 |
| 20260902170038 | 71 | 194 | 0.0 | 0.0 | 0.00 | 0.00 | 0.00 | 26 | 1007.9 |
| 20260902164519 | 70 | 267 | 0.0 | 0.0 | 0.00 | 0.00 | 0.00 | 26 | 1007.9 |
| 20260902163016 | 70 | 267 | 0.0 | 0.0 | 0.00 | 0.00 | 0.00 | 26 | 1007.8 |
| 20260902161557 | 69 | 281 | 0.0 | 0.0 | 0.00 | 0.00 | 0.00 | 26 | 1007.7 |
| 20260902160105 | 68 | 279 | 2.0 | 0.0 | 0.00 | 0.00 | 0.00 | 28 | 1007.5 |
| 20260902154552 | 67 | 273 | 3.0 | 0.0 | 0.00 | 0.00 | 0.00 | 27 | 1007.4 |
| 20260902153041 | 66 | 292 | 3.0 | 0.0 | 0.00 | 0.00 | 0.00 | 29 | 1007.2 |
| 20260902151539 | 65 | 257 | 1.0 | 0.0 | 0.00 | 0.00 | 0.00 | 43 | 1006.8 |
| 20260902150037 | 65 | 10 | 0.0 | 0.0 | 0.00 | 0.00 | 0.00 | 47 | 1006.3 |
| 20260902144536 | 65 | 9 | 0.0 | 0.0 | 0.00 | 0.00 | 0.00 | 41 | 1005.8 |
| 20260902143036 | 64 | 355 | 0.0 | 0.0 | 0.00 | 0.00 | 0.00 | 44 | 1006.5 |
| 20260902141537 | 63 | 355 | 0.0 | 0.0 | 0.00 | 0.00 | 0.00 | 53 | 1006.7 |
| 20260902131521 | 62 | 355 | 0.0 | 0.0 | 0.00 | 0.00 | 0.00 | 54 | 1005.2 |
| 20260902130030 | 63 | 355 | 0.0 | 0.0 | 0.00 | 0.00 | 0.00 | 51 | 1005.0 |
| 20260902124520 | 64 | 355 | 0.0 | 0.0 | 0.00 | 0.00 | 0.00 | 48 | 1005.0 |
| 20260902123027 | 65 | 355 | 0.0 | 0.0 | 0.00 | 0.00 | 0.00 | 42 | 1004.6 |
| 20260902121559 | 65 | 355 | 0.0 | 0.0 | 0.00 | 0.00 | 0.00 | 39 | 1004.3 |
| 20260902120059 | 63 | 342 | 0.0 | 0.0 | 0.00 | 0.00 | 0.00 | 47 | 1004.3 |
| 20260902114549 | 62 | 342 | 0.0 | 0.0 | 0.00 | 0.00 | 0.00 | 54 | 1004.6 |
| 20260902113037 | 61 | 342 | 0.0 | 0.0 | 0.00 | 0.00 | 0.00 | 60 | 1004.5 |
| 20260902111519 | 61 | 342 | 0.0 | 0.0 | 0.00 | 0.00 | 0.00 | 71 | 1004.1 |
| 20260902110015 | 61 | 342 | 0.0 | 0.0 | 0.00 | 0.00 | 0.00 | 72 | 1003.8 |
| 20260902104600 | 60 | 342 | 0.0 | 0.0 | 0.00 | 0.00 | 0.00 | 72 | 1003.7 |
| 20260902103105 | 60 | 342 | 0.0 | 0.0 | 0.00 | 0.00 | 0.00 | 71 | 1003.5 |
| 20260902101544 | 60 | 342 | 0.0 | 0.0 | 0.00 | 0.00 | 0.00 | 70 | 1003.5 |
| 20260902100035 | 60 | 342 | 0.0 | 0.0 | 0.00 | 0.00 | 0.00 | 71 | 1003.3 |
| 20260902094516 | 59 | 342 | 0.0 | 0.0 | 0.00 | 0.00 | 0.00 | 72 | 1003.1 |
| 20260902093020 | 59 | 342 | 0.0 | 0.0 | 0.00 | 0.00 | 0.00 | 71 | 1002.9 |
| 20260902091600 | 59 | 342 | 0.0 | 0.0 | 0.00 | 0.00 | 0.00 | 72 | 1002.8 |
| 20260902090055 | 59 | 342 | 0.0 | 0.0 | 0.00 | 0.00 | 0.00 | 72 | 1002.7 |
| 20260902084536 | 60 | 342 | 0.0 | 0.0 | 0.00 | 0.00 | 0.00 | 70 | 1002.7 |
| 20260902083038 | 60 | 342 | 0.0 | 0.0 | 0.00 | 0.00 | 0.00 | 70 | 1002.5 |
| 20260902081514 | 60 | 342 | 0.0 | 0.0 | 0.00 | 0.00 | 0.00 | 71 | 1002.4 |
| 20260902080018 | 61 | 342 | 0.0 | 0.0 | 0.00 | 0.00 | 0.00 | 72 | 1002.0 |
| 20260902074554 | 61 | 342 | 0.0 | 0.0 | 0.00 | 0.00 | 0.00 | 70 | 1001.8 |
| 20260902073053 | 62 | 342 | 0.0 | 0.0 | 0.00 | 0.00 | 0.00 | 69 | 1001.7 |
| 20260902071537 | 63 | 342 | 0.0 | 0.0 | 0.00 | 0.00 | 0.00 | 68 | 1001.7 |
| 20260902070026 | 63 | 342 | 0.0 | 0.0 | 0.00 | 0.00 | 0.00 | 65 | 1001.6 |
| 20260902064506 | 64 | 342 | 0.0 | 0.0 | 0.00 | 0.00 | 0.00 | 64 | 1001.5 |
| 20260902063011 | 65 | 342 | 0.0 | 0.0 | 0.00 | 0.00 | 0.00 | 62 | 1001.5 |
| 20260902061545 | 65 | 342 | 0.0 | 0.0 | 0.00 | 0.00 | 0.00 | 62 | 1001.7 |
| 20260902060042 | 66 | 342 | 0.0 | 0.0 | 0.00 | 0.00 | 0.00 | 61 | 1001.7 |
| 20260902054532 | 67 | 342 | 0.0 | 0.0 | 0.00 | 0.00 | 0.00 | 59 | 1001.8 |
| 20260902053025 | 68 | 342 | 0.0 | 0.0 | 0.00 | 0.00 | 0.00 | 56 | 1001.8 |
| 20260902051525 | 68 | 342 | 0.0 | 0.0 | 0.00 | 0.00 | 0.00 | 53 | 1001.8 |
| 20260902050019 | 69 | 342 | 0.0 | 0.0 | 0.00 | 0.00 | 0.00 | 48 | 1001.8 |
| 20260902044516 | 70 | 342 | 0.0 | 0.0 | 0.00 | 0.00 | 0.00 | 45 | 1001.8 |
| 20260902043012 | 71 | 342 | 0.0 | 0.0 | 0.00 | 0.00 | 0.00 | 45 | 1001.7 |
| 20260902041510 | 72 | 342 | 0.0 | 0.0 | 0.00 | 0.00 | 0.00 | 44 | 1001.6 |
| 20260902040011 | 72 | 342 | 0.0 | 0.0 | 0.00 | 0.00 | 0.00 | 42 | 1001.6 |
| 20260902034547 | 73 | 342 | 0.0 | 0.0 | 0.00 | 0.00 | 0.00 | 41 | 1001.6 |
| 20260902033053 | 73 | 342 | 0.0 | 0.0 | 0.00 | 0.00 | 0.00 | 42 | 1001.4 |
| 20260902031529 | 74 | 342 | 0.0 | 0.0 | 0.00 | 0.00 | 0.00 | 43 | 1001.4 |
| 20260902030028 | 75 | 342 | 0.0 | 0.0 | 0.00 | 0.00 | 0.00 | 42 | 1001.3 |
| 20260902024511 | 76 | 342 | 0.0 | 0.0 | 0.00 | 0.00 | 0.00 | 41 | 1001.4 |
| 20260902023025 | 77 | 342 | 0.0 | 0.0 | 0.00 | 0.00 | 0.00 | 39 | 1001.4 |
| 20260902021609 | 78 | 342 | 0.0 | 0.0 | 0.00 | 0.00 | 0.00 | 38 | 1001.5 |
| 20260902020052 | 79 | 342 | 0.0 | 0.0 | 0.00 | 0.00 | 0.00 | 36 | 1001.4 |
| 20260902014553 | 79 | 341 | 0.0 | 0.0 | 0.00 | 0.00 | 0.00 | 36 | 1001.4 |
| 20260902013038 | 79 | 341 | 3.0 | 0.0 | 0.00 | 0.00 | 0.00 | 36 | 1001.6 |
| 20260902011537 | 80 | 337 | 3.0 | 0.0 | 0.00 | 0.00 | 0.00 | 37 | 1001.6 |
| 20260902010036 | 82 | 308 | 2.0 | 0.0 | 0.00 | 0.00 | 0.00 | 36 | 1001.8 |
| 20260902004539 | 81 | 257 | 1.0 | 0.0 | 0.00 | 0.00 | 0.00 | 34 | 1001.8 |
| 20260902003036 | 82 | 327 | 2.0 | 0.0 | 0.00 | 0.00 | 0.00 | 32 | 1001.5 |
| 20260902001536 | 83 | 340 | 3.0 | 0.0 | 0.00 | 0.00 | 0.00 | 30 | 1001.5 |
| 20260902000035 | 84 | 333 | 0.0 | 0.0 | 0.00 | 0.00 | 0.00 | 29 | 1001.5 |
| 20260901234534 | 84 | 330 | 3.0 | 0.0 | 0.00 | 0.00 | 0.00 | 28 | 1001.7 |
| 20260901233013 | 85 | 333 | 0.0 | 0.0 | 0.00 | 0.00 | 0.00 | 28 | 1001.9 |
| 20260901231514 | 86 | 333 | 0.0 | 0.0 | 0.00 | 0.00 | 0.00 | 30 | 1002.1 |
| 20260901230107 | 86 | 338 | 2.0 | 0.0 | 0.00 | 0.00 | 0.00 | 30 | 1002.3 |
| 20260901224552 | 86 | 282 | 0.0 | 0.0 | 0.00 | 0.00 | 0.00 | 27 | 1002.6 |
| 20260901223037 | 86 | 277 | 0.0 | 0.0 | 0.00 | 0.00 | 0.00 | 29 | 1002.8 |
| 20260901221534 | 86 | 280 | 0.0 | 0.0 | 0.00 | 0.00 | 0.00 | 29 | 1002.7 |
| 20260901220025 | 86 | 275 | 0.0 | 0.0 | 0.00 | 0.00 | 0.00 | 28 | 1003.1 |
| 20260901214509 | 86 | 267 | 0.0 | 0.0 | 0.00 | 0.00 | 0.00 | 29 | 1003.4 |
| 20260901213112 | 85 | 30 | 0.0 | 0.0 | 0.00 | 0.00 | 0.00 | 32 | 1003.6 |
| 20260901211548 | 84 | 33 | 0.0 | 0.0 | 0.00 | 0.00 | 0.00 | 30 | 1003.8 |
| 20260901210025 | 82 | 42 | 0.0 | 0.0 | 0.00 | 0.00 | 0.00 | 36 | 1004.0 |
| 20260901204534 | 81 | 11 | 0.0 | 0.0 | 0.00 | 0.00 | 0.00 | 35 | 1004.2 |
| 20260901203022 | 81 | 36 | 0.0 | 0.0 | 0.00 | 0.00 | 0.00 | 39 | 1004.4 |
| 20260901201507 | 81 | 13 | 0.0 | 0.0 | 0.00 | 0.00 | 0.00 | 36 | 1004.5 |